| time (UTC) | temp F | wind direction | speed MPH | gust MPH | rain 1hr in | rain 24hr in | rain mn in | humidity % | barometer mb |
| 20260903011504 | 61 | 19 | 0.0 | 0.0 | 0.00 | 0.00 | 0.00 | 79 | 982.0 |
| 20260903005852 | 62 | 0 | 0.0 | 0.0 | 0.00 | 0.00 | 0.00 | 78 | 982.0 |
| 20260903001504 | 62 | 0 | 0.0 | 0.0 | 0.00 | 0.00 | 0.00 | 77 | 982.1 |
| 20260902234510 | 63 | 23 | 0.0 | 0.0 | 0.00 | 0.00 | 0.00 | 77 | 982.2 |
| 20260902231505 | 64 | 22 | 0.0 | 0.0 | 0.00 | 0.00 | 0.00 | 75 | 982.2 |
| 20260902224504 | 65 | 23 | 0.0 | 0.0 | 0.00 | 0.00 | 0.00 | 73 | 982.1 |
| 20260902221504 | 66 | 0 | 0.0 | 0.0 | 0.00 | 0.00 | 0.00 | 71 | 981.8 |
| 20260902214504 | 67 | 0 | 0.0 | 0.0 | 0.00 | 0.00 | 0.00 | 69 | 981.7 |
| 20260902211502 | 68 | 24 | 0.0 | 0.0 | 0.00 | 0.00 | 0.00 | 68 | 981.5 |
| 20260902205902 | 69 | 19 | 0.0 | 0.0 | 0.00 | 0.00 | 0.00 | 66 | 981.5 |
| 20260902201504 | 70 | 0 | 0.0 | 0.0 | 0.00 | 0.00 | 0.00 | 64 | 981.3 |
| 20260902194503 | 71 | 0 | 0.0 | 0.0 | 0.00 | 0.00 | 0.00 | 61 | 981.1 |
| 20260902191457 | 73 | 22 | 0.0 | 0.0 | 0.00 | 0.00 | 0.00 | 59 | 980.8 |
| 20260902184459 | 75 | 0 | 0.0 | 0.0 | 0.00 | 0.00 | 0.00 | 54 | 980.4 |
| 20260902182833 | 79 | 0 | 0.0 | 0.0 | 0.00 | 0.00 | 0.00 | 50 | 980.1 |
| 20260902174458 | 81 | 13 | 0.0 | 4.0 | 0.00 | 0.00 | 0.00 | 48 | 979.9 |
| 20260902171458 | 82 | 0 | 0.0 | 0.0 | 0.00 | 0.00 | 0.00 | 47 | 979.9 |
| 20260902164455 | 82 | 0 | 0.0 | 1.0 | 0.00 | 0.00 | 0.00 | 46 | 979.7 |
| 20260902161454 | 83 | 59 | 0.0 | 1.0 | 0.00 | 0.00 | 0.00 | 45 | 979.8 |
| 20260902155844 | 82 | 0 | 0.0 | 0.0 | 0.00 | 0.00 | 0.00 | 46 | 979.9 |
| 20260902151453 | 83 | 27 | 0.0 | 0.0 | 0.00 | 0.00 | 0.00 | 43 | 979.8 |
| 20260902144453 | 84 | 28 | 0.0 | 0.0 | 0.00 | 0.00 | 0.00 | 43 | 979.9 |
| 20260902141450 | 84 | 0 | 0.0 | 0.0 | 0.00 | 0.00 | 0.00 | 43 | 980.0 |
| 20260902134453 | 84 | 0 | 0.0 | 4.0 | 0.00 | 0.00 | 0.00 | 42 | 980.0 |
| 20260902132832 | 84 | 0 | 0.0 | 0.0 | 0.00 | 0.00 | 0.00 | 41 | 980.1 |
| 20260902124447 | 85 | 0 | 0.0 | 6.0 | 0.00 | 0.00 | 0.00 | 41 | 980.4 |
| 20260902121451 | 85 | 51 | 0.0 | 5.0 | 0.00 | 0.00 | 0.00 | 42 | 980.7 |
| 20260902114447 | 85 | 306 | 0.0 | 8.0 | 0.00 | 0.00 | 0.00 | 43 | 980.8 |
| 20260902111447 | 84 | 0 | 0.0 | 2.0 | 0.00 | 0.00 | 0.00 | 44 | 980.8 |
| 20260902104446 | 83 | 0 | 0.0 | 0.0 | 0.00 | 0.00 | 0.00 | 47 | 981.2 |
| 20260902101444 | 81 | 0 | 0.0 | 0.0 | 0.00 | 0.00 | 0.00 | 48 | 981.2 |
| 20260902095828 | 80 | 0 | 0.0 | 0.0 | 0.00 | 0.00 | 0.00 | 50 | 981.4 |
| 20260902091444 | 77 | 0 | 0.0 | 0.0 | 0.00 | 0.00 | 0.00 | 56 | 981.5 |
| 20260902084444 | 74 | 0 | 0.0 | 0.0 | 0.00 | 0.00 | 0.00 | 60 | 981.4 |
| 20260902082829 | 73 | 0 | 0.0 | 0.0 | 0.00 | 0.00 | 0.00 | 61 | 981.1 |
| 20260902074439 | 70 | 0 | 0.0 | 0.0 | 0.00 | 0.00 | 0.00 | 67 | 980.9 |
| 20260902071437 | 66 | 55 | 0.0 | 0.0 | 0.00 | 0.00 | 0.00 | 77 | 980.5 |
| 20260902064438 | 62 | 54 | 0.0 | 0.0 | 0.00 | 0.00 | 0.00 | 80 | 980.2 |
| 20260902061437 | 60 | 55 | 0.0 | 0.0 | 0.00 | 0.00 | 0.00 | 84 | 980.3 |
| 20260902051432 | 57 | 0 | 0.0 | 0.0 | 0.00 | 0.00 | 0.00 | 85 | 980.1 |
| 20260902041430 | 58 | 0 | 0.0 | 0.0 | 0.00 | 0.00 | 0.00 | 83 | 979.9 |
| 20260902034430 | 58 | 54 | 0.0 | 0.0 | 0.00 | 0.00 | 0.00 | 83 | 979.8 |
| 20260902031431 | 58 | 53 | 0.0 | 0.0 | 0.00 | 0.00 | 0.00 | 82 | 979.7 |
| 20260902024432 | 59 | 0 | 0.0 | 0.0 | 0.00 | 0.00 | 0.00 | 81 | 979.7 |
| 20260902022809 | 59 | 0 | 0.0 | 0.0 | 0.00 | 0.00 | 0.00 | 80 | 979.9 |
| 20260902015807 | 60 | 0 | 0.0 | 0.0 | 0.00 | 0.00 | 0.00 | 79 | 979.7 |